Location: Mount Kobau Star Party
(49.1167°N, 119.7333°W)
Time: 10:43:34
(UTC-07:00)

ARIANE 6 FM1 Upper Stage - Pass Details

Date: 14 April 2026
Orbit: 526 x 601 km, 62.0° (Epoch: 18 May)

Event Time Altitude Azimuth Distance (km) Brightness Sun altitude
Rises 00:14:31 0° 310° (NW) 2,687 6.9 -30.6°
Reaches altitude 10° 00:17:42 10° 336° (NNW) 1,784 6.1 -30.7°
Maximum altitude 00:19:49 14° 9° (N) 1,549 5.6 -30.8°
Drops below altitude 10° 00:21:56 10° 41° (NE) 1,775 5.6 -30.9°
Enters shadow 00:23:03 - 53° (NE) 2,041 5.8 -30.9°
